Погода в Малиновке

Погода в Малиновке : погода сейчас, прогноз погоды и архив. Всё, что Вы хотите узнать о погоде в Малиновке!

Поиск расширенной информации на нашем сайте:

Другие новости

Новости СМИ2

Главная страница сайта

Новости сайта

03.07.2017

Напоминаем, что на нашем специализированном сайте Метеоцентр.Азия вы можете получить высокодетализированные автоматические прогнозы погоды по пунктам России, СНГ и мира в авиационном формате (включающие направление и скорость ветра, видимость, явления погоды, количество и форму облачности, нижнюю и верхнюю границу облачности).


Погода в Малиновке - сегодня

Время (UTC), дата Ветер
(°,м/с) 
Видим.   Явления Облачность Т
(°С)
Тd
(°С)
f(%) Тe
(°С)
Pmin
(гПа)
dP
(гПа)
Po
(мм)
O2
(г/м3)
Тmin Tmax R s Состояние
почвы
03 20.02.18 280 (З) 20000 м  {туман}  ясно 
-16.8 -27.2 40 -19  1017.7  0.1  752  324           
06 20.02.18 300 (СЗ) 20000 м  {туман}  ясно 
-14.7 -24 45 -18  1017.3  -0.2  751  322           
09 20.02.18 300 (СЗ) 20000 м    ясно 
-17.6 -27.1 43 -18  1018.5  0.9  752  326           
15 20.02.18 300 (СЗ) 0500 м  переохл. туман  ясно 
-30.1 -33.4 73 -31  1019.1  -0.6  752  343           
18 20.02.18 350 (С) 0500 м  переохл. туман  ясно 
-29.5 -33.2 70 -30  1018.4  -0.6  752  341           
21 20.02.18 010 (С) 0500 м  переохл. туман  ясно 
-32.2 -36.2 67 -33  1018.5  0.1  752  345           
00 21.02.18 тихо ()   0500 м  переохл. туман  ясно 
-29.9 -33.6 70 -30  1018.2  -0.2  751  342  -32.9      18  равномерный
сухой снег
100% 
03 21.02.18 230 (ЮЗ) 20000 м  {туман}  ясно 
-16.4 -24.4 50 -17  1016.7  -0.6  751  324           
06 21.02.18 250 (З) 20000 м  {туман}  1/0 верхняя 
[Ci fib]
-12.7 -23.5 40 -15  1014.5  -1.9  749  318           
09 21.02.18 тихо ()   20000 м    10/0 верхняя 
[Ci]
-15.3 -23.3 50 -15  1014.4  -0.3  749  321           
15 21.02.18 300 (СЗ) 50000 м    4/0 верхняя 
[Ci fib]
-24.8 -27.5 78 -25  1015.2  -0.3  749  334           
18 21.02.18 360 (С) 50000 м    ясно 
-28 -31.2 74 -29  1014.9  -0.5  749  338           
21 21.02.18 тихо ()   50000 м    3/0 верхняя 
[Ci fib]
-30.3 -34 70 -30  1015.2  -0.1  749  341           
00 22.02.18 300 (СЗ) 2000 м  дымка  3/0 верхняя 
[Ci fib]
-27.8 -31.3 72 -28  1016  750  338  -30.9      18  равномерный
сухой снег
100% 
03 22.02.18 240 (ЮЗ) 20000 м    1/0 верхняя 
[Ci fib]
-15.9 -21.9 60 -16  1015.4  0.1  750  322           
06 22.02.18 230 (ЮЗ) 20000 м    1/1 1000 м 
[Cu hum]
-11.2 -20.1 48 -13  1014.3  -0.7  749  316           
09 22.02.18 230 (ЮЗ) 20000 м    3/0 верхняя 
[Ci fib]
-15.7 -21.5 61 -18  1016.1  1.5  751  322           
15 22.02.18 320 (СЗ) 50000 м    ясно 
-28.2 -31.4 74 -29  1020  1.2  753  340           
18 22.02.18 тихо ()   50000 м    10/0 верхняя 
[Ci fib]
-29.5 -33.2 70 -30  1020.9  0.8  753  342           
21 22.02.18 тихо ()   7000 м  дымка  10/0 верхняя 
[Ci fib]
-31.8 -35.8 68 -32  1022.5  1.3  754  346           
00 23.02.18 тихо ()   8000 м  дымка  6/0 верхняя 
[Ci fib]
-30.2 -33.9 70 -30  1024.5  2.1  756  344  -33.1      18  равномерный
сухой снег
100% 
03 23.02.18 260 (З) 20000 м    3/0 верхняя 
[Ci fib]
-17.4 -23.8 57 -18  1024.1  0.4  756  327           
06 23.02.18 200 (Ю) 20000 м    3/1 1000 м верхняя 
[Cu hum|Ci fib]
-11.5 -23.9 35 -11  1023.3  -0.4  756  320           
09 23.02.18 290 (З) 20000 м    3/0 верхняя 
[Ci fib]
-14.9 -25 42 -17  1024.9  1.4  757  324           
15 23.02.18 300 (СЗ) 50000 м    ясно 
-26.5 -29.4 76 -27  1028.8  759  341           
Время (UTC), дата Ветер
(°,м/с) 
Видим.   Явления Облачность Т
(°С)
Тd
(°С)
f(%) Тe
(°С)
Pmin
(гПа)
dP
(гПа)
Po
(мм)
O2
(г/м3)
Тmin Tmax R s Состояние
почвы

Для получения пояснительной информации подведите курсор к названию столбца.

ПОГОДА в Малиновке - архив

Всё, что Вы хотите узнать о погоде в Малиновке - удобно и подробно!

Выберите нужную дату (начиная с 1 января 2015* года) и нажмите кнопку "Найти".
Будут отображены архивные сводки погоды по пункту Малиновка, начиная с указанной даты.


Отображать данные в формате CSV (для использования в таблицах Excel)


Внимание! Наш архив погоды предназначен исключительно для личного некоммерческого использования в познавательных целях. Если Вам необходимы официальные справки о состоянии погоды (для производственных, юридических, коммерческих и т.п. целей), обращайтесь в органы Росгидромета.

*Примечание: данная дата относится к архиву по метеостанциям СССР (Россия, СНГ, Балтия).
Архив по метеостанциям Зарубежной Европы и Азии (кроме Китая) хранится 10 дней, по другим регионам земного шара (Китай, Африка, Америка, Австралия, Океания) - 1 день.

Малиновка - район местоположения метеостанции


Название, широта, долгота, высота метеостанции:
Малиновка 49.8°ш. 129.9°д. 116 м над ур. моря [Российская Федерация]

Дополнительная информация

В oтличие oт бoльшинства пoгoдных сайтoв мы публикуем пoдрoбную метеoинфoрмацию в детальнoм прoфессиoнальнoм фoрмате.

Характеристики температуры и влажнoсти вoздуха измеряются на высoте 2 м в тени вдали oт зданий и деревьев.
Скoрoсть ветра измеряется на высoте 10 м (на урoвне рoста челoвека скoрoсть ветра ниже в 1.5-2 раза). Если метеoстанция нахoдится в гoрoде или в лесу, тo скoрoсть ветра занижена на 2-4 м/с пo сравнению с oткрытым местoм. Скoрoсть ветра над акватoриями крупных рек и oзёр, а также на вершинах хoлмoв на 2-5 м/с выше, чем в oбычных услoвиях.
Атмoсфернoе давление в разных тoчках местнoсти мoжет значительнo oтличаться oт давления на метеoстанции, в зависимoсти oт услoвий рельефа (при пoдъёме на 10 м давление пoнижается примернo на 1 мм рт.ст.).